Weather History for Bennington, VT

Change the Weather History Date:

Wednesday, April 30, 2014

  Actual Average Record
Temperature  
Mean Temperature 44 °F 51 °F  
Max Temperature 49 °F 63 °F 80 °F (2004)
Min Temperature 39 °F 39 °F 25 °F (2012)
Degree Days  
Heating Degree Days 21 15  
Month to date heating degree days 587 588  
Since 1 July heating degree days 6993 6823  
Cooling Degree Days 0 0  
Month to date cooling degree days 4 3  
Year to date cooling degree days 4 3  
Moisture  
Dew Point 36 °F    
Average Humidity 74    
Maximum Humidity 83    
Minimum Humidity 65    
Precipitation  
Precipitation 0.57 in 0.12 in 0.57 in (2014)
Month to date precipitation 2.46 3.27  
Year to date precipitation 10.47 11.41  
Sea Level Pressure  
Sea Level Pressure 30.29 in    
Wind  
Wind Speed 12 mph (ESE)    
Max Wind Speed 29 mph    
Max Gust Speed 42 mph    
Visibility 8 miles    
Events Rain    
T = Trace of Precipitation, MM = Missing Value Source: NWS Daily Summary

Daily Weather History Graph

Daily Weather History Graph

Search for Another Location

Airport:

Trip Planner

Search our weather history database for the weather conditions in past years. The results will help you decide how hot, cold, wet, or windy it might be!

Date:

Astronomy

Apr. 30, 2014 Rise Set
Actual Time 5:48 AM EDT 7:52 PM EDT
Civil Twilight 5:17 AM EDT 8:23 PM EDT
Nautical Twilight 4:39 AM EDT 9:01 PM EDT
Astronomical Twilight 3:58 AM EDT 9:43 PM EDT
Moon 6:46 AM EDT (4/30) 9:30 PM EDT (4/30)
Length of Visible Light 15h 05m
Length of Day
14h 04m
New Moon, 2% of the Moon is Illuminated
Apr 30
New Moon
May 6
First Quarter
May 14
Full
May 21
Last Quarter
May 28
New

Hourly Weather History & Observations

Time (EDT) Temp. Windchill Dew Point Humidity Pressure Visibility Wind Dir Wind Speed Gust Speed Precip Events Conditions
12:54 AM 39.9 °F 33.9 °F 32.0 °F 73% 30.45 in 9.0 mi ESE 9.2 mph 19.6 mph 0.02 in Rain Light Rain
1:54 AM 39.0 °F 34.0 °F 33.1 °F 79% 30.42 in 9.0 mi Variable 6.9 mph - 0.06 in Rain Light Rain
2:54 AM 39.9 °F 33.4 °F 32.0 °F 73% 30.43 in 10.0 mi ESE 10.4 mph 20.7 mph 0.00 in   Overcast
3:08 AM 39.9 °F 32.5 °F 32.0 °F 73% 30.41 in 10.0 mi East 12.7 mph 19.6 mph N/A   Overcast
3:54 AM 39.0 °F 31.4 °F 33.1 °F 79% 30.44 in 8.0 mi SE 12.7 mph 17.3 mph 0.00 in Rain Light Rain
4:49 AM 39.2 °F 35.9 °F 33.8 °F 81% 30.42 in 5.0 mi East 4.6 mph - 0.04 in Rain Light Rain
4:54 AM 39.0 °F 34.0 °F 34.0 °F 82% 30.43 in 6.0 mi ESE 6.9 mph - 0.06 in Rain Light Rain
5:54 AM 39.9 °F 32.5 °F 33.1 °F 77% 30.44 in 10.0 mi SE 12.7 mph - 0.04 in   Overcast
6:54 AM 39.9 °F 33.9 °F 33.1 °F 77% 30.42 in 10.0 mi ESE 9.2 mph - 0.00 in Rain Light Rain
7:54 AM 39.9 °F 32.1 °F 32.0 °F 73% 30.41 in 10.0 mi SE 13.8 mph 23.0 mph 0.01 in   Overcast
8:54 AM 42.1 °F 35.2 °F 33.1 °F 70% 30.38 in 10.0 mi SE 12.7 mph 18.4 mph 0.00 in   Overcast
9:54 AM 43.0 °F 37.2 °F 32.0 °F 65% 30.37 in 10.0 mi ESE 10.4 mph 21.9 mph 0.00 in   Overcast
11:54 AM 44.1 °F 36.8 °F 34.0 °F 68% 30.33 in 10.0 mi ESE 16.1 mph 25.3 mph 0.00 in   Overcast
12:54 PM 44.1 °F 37.1 °F 35.1 °F 71% 30.31 in 8.0 mi ESE 15.0 mph 28.8 mph 0.01 in Rain Light Rain
1:54 PM 44.1 °F - 37.0 °F 76% 30.29 in 9.0 mi North - - 0.03 in Rain Light Rain
2:54 PM 44.1 °F 40.1 °F 37.9 °F 79% 30.26 in 6.0 mi ESE 6.9 mph - 0.06 in Rain Light Rain
3:26 PM 45.0 °F 41.8 °F 37.9 °F 76% 30.23 in 2.5 mi Variable 5.8 mph - 0.03 in Rain Rain
3:36 PM 44.1 °F - 37.9 °F 79% 30.23 in 5.0 mi Calm Calm - 0.04 in Rain Light Rain
3:43 PM 44.1 °F - 39.0 °F 82% 30.23 in 5.0 mi Calm Calm - 0.05 in Rain Light Rain
3:54 PM 44.1 °F 40.8 °F 37.9 °F 79% 30.24 in 6.0 mi Variable 5.8 mph - 0.06 in Rain Light Rain
4:54 PM 45.0 °F 41.2 °F 39.0 °F 80% 30.21 in 7.0 mi Variable 6.9 mph - 0.06 in Rain Light Rain
5:54 PM 45.0 °F 39.7 °F 39.9 °F 82% 30.16 in 6.0 mi ENE 10.4 mph - 0.05 in Rain Light Rain
6:54 PM 46.0 °F 44.8 °F 39.9 °F 79% 30.15 in 7.0 mi Variable 3.5 mph - 0.05 in Rain Light Rain
7:54 PM 46.9 °F - 39.0 °F 74% 30.14 in 10.0 mi ESE 9.2 mph 19.6 mph 0.01 in   Overcast
8:54 PM 46.9 °F - 39.0 °F 74% 30.11 in 10.0 mi SE 18.4 mph 35.7 mph 0.00 in   Overcast
9:54 PM 48.9 °F - 41.0 °F 74% 30.09 in 10.0 mi SE 24.2 mph 31.1 mph 0.01 in   Overcast
10:54 PM 48.9 °F - 39.9 °F 71% 30.06 in 10.0 mi SE 16.1 mph 28.8 mph N/A   Overcast
11:54 PM 48.0 °F - 41.0 °F 77% 30.01 in 10.0 mi SE 20.7 mph 32.2 mph 0.01 in Rain Light Rain